Date String (YYYY-MM-DD hh:mm:ss) UTC,Instrument flags,Ambient pressure (hPa),Sample flow (lpm),Bypass flow (lpm),Sample temperature (°C),Ambient temperature (°C),ASC tube jacket temperature (°C),LED temperature (°C),Box temperature (°C),Sample RH (%),Span deviation,Mass concentration (μg/m³),Mass concentration (μg/m³),Mass concentration (μg/m³)
DateTimeUTC,F1_M11,P_M11,Q1_M11,Q2_M11,T1_M11,T2_M11,T3_M11,T4_M11,T5_M11,U1_M11,ZSPAN_M11,X0_M11,X2_M11,X1_M11
2021-09-16 17:00:00,,0823.3,5.00,0.00,29.1,26.6,00.0,38.3,30.7,13.9,0003.5,0013.23,0006.35,0005.64
2021-09-16 17:01:00,,0823.3,5.01,0.00,29.1,26.9,00.0,38.2,30.8,12.4,0003.4,0012.91,0006.41,0005.66
2021-09-16 17:02:00,,0823.4,5.00,0.00,29.1,27.4,00.0,38.2,30.9,12.5,0003.2,0012.50,0006.43,0005.69
2021-09-16 17:03:00,,0823.4,5.00,0.00,29.2,27.7,00.0,38.2,31.0,13.4,0003.1,0012.65,0006.48,0005.70
2021-09-16 17:04:00,,0823.4,5.00,0.00,29.2,28.0,00.0,38.2,31.1,15.0,0003.0,0013.65,0006.54,0005.72
2021-09-16 17:05:00,,0823.3,5.01,0.00,29.3,28.0,00.0,38.3,31.1,15.5,0002.9,0013.85,0006.60,0005.73
2021-09-16 17:06:00,,0823.3,4.99,0.00,29.2,26.6,00.0,38.2,30.7,15.2,0003.0,0014.95,0006.65,0005.72
2021-09-16 17:07:00,,0823.2,4.99,0.00,29.1,25.8,00.0,38.2,30.5,15.0,0003.2,0015.42,0006.64,0005.69
2021-09-16 17:08:00,,0823.3,5.00,0.00,29.0,26.2,00.0,38.2,30.6,14.1,0003.3,0015.43,0006.67,0005.69
2021-09-16 17:09:00,,0823.3,4.99,0.00,29.0,26.7,00.0,38.2,30.7,13.8,0003.2,0015.57,0006.72,0005.73
2021-09-16 17:10:00,,0823.3,5.00,0.00,29.0,27.1,00.0,38.2,30.8,13.9,0003.0,0014.95,0006.70,0005.76
2021-09-16 17:11:00,,0823.3,5.00,0.00,29.1,27.5,00.0,38.2,30.9,14.4,0003.0,0014.83,0006.68,0005.79
2021-09-16 17:12:00,,0823.2,5.01,0.00,29.1,27.8,00.0,38.2,31.0,15.4,0002.9,0014.83,0006.66,0005.80
2021-09-16 17:13:00,,0823.2,4.99,0.00,29.2,28.1,00.0,38.2,31.1,15.0,0002.6,0014.90,0006.65,0005.79
2021-09-16 17:14:00,,0823.2,4.99,0.00,29.3,28.1,00.0,38.2,31.1,14.6,0002.5,0015.09,0006.68,0005.79
2021-09-16 17:15:00,,0823.2,5.00,0.00,29.2,26.8,00.0,38.2,30.7,14.2,0002.4,0014.67,0006.71,0005.81
2021-09-16 17:16:00,,0823.1,5.01,0.00,29.1,25.8,00.0,38.2,30.5,14.9,0002.6,0014.31,0006.74,0005.83
2021-09-16 17:17:00,,0823.1,5.00,0.00,29.0,26.2,00.0,38.2,30.6,13.9,0002.8,0013.42,0006.69,0005.84
2021-09-16 17:18:00,,0823.1,5.01,0.00,29.0,26.6,00.0,38.1,30.7,12.7,0002.3,0013.32,0006.74,0005.86
2021-09-16 17:19:00,,0823.1,4.99,0.00,29.0,27.1,00.0,38.1,30.8,12.9,0002.2,0013.71,0006.72,0005.88
2021-09-16 17:20:00,,0823.1,5.01,0.00,29.1,27.5,00.0,38.1,30.9,12.6,0001.8,0014.25,0006.67,0005.85
2021-09-16 17:21:00,,0823.1,4.99,0.00,29.1,27.8,00.0,38.1,31.0,12.8,0001.8,0014.45,0006.71,0005.86
2021-09-16 17:22:00,,0823.0,5.00,0.00,29.2,28.1,00.0,38.1,31.1,13.6,0002.1,0014.41,0006.75,0005.86
2021-09-16 17:23:00,,0823.0,5.00,0.00,29.2,28.2,00.0,38.2,31.1,14.3,0001.7,0014.60,0006.75,0005.84
2021-09-16 17:24:00,,0823.0,5.00,0.00,29.2,26.9,00.0,38.2,30.8,14.1,0001.7,0015.41,0006.73,0005.84
2021-09-16 17:25:00,,0822.9,5.01,0.00,29.1,25.8,00.0,38.2,30.5,14.1,0001.4,0016.21,0006.73,0005.83
2021-09-16 17:26:00,,0823.0,5.00,0.00,29.0,26.2,00.0,38.1,30.6,13.4,0001.4,0016.06,0006.70,0005.81
2021-09-16 17:27:00,,0823.0,4.98,0.00,29.0,26.6,00.0,38.1,30.7,12.9,0001.4,0015.79,0006.67,0005.80
2021-09-16 17:28:00,,0822.9,5.01,0.00,29.0,27.0,00.0,38.1,30.7,13.3,0001.4,0016.03,0006.72,0005.82
2021-09-16 17:29:00,,0822.9,4.99,0.00,29.1,27.4,00.0,38.1,30.9,14.1,0001.7,0016.75,0006.75,0005.82
2021-09-16 17:30:00,,0823.0,5.01,0.00,29.1,27.8,00.0,38.1,31.0,13.7,0001.7,0016.22,0006.74,0005.78
2021-09-16 17:31:00,,0823.0,5.00,0.00,29.2,27.9,00.0,38.1,31.0,13.5,0002.0,0015.67,0006.76,0005.77
2021-09-16 17:32:00,,0822.9,4.99,0.00,29.1,26.7,00.0,38.1,30.7,12.9,0001.9,0016.09,0006.76,0005.75
2021-09-16 17:33:00,,0822.9,5.01,0.00,29.0,25.7,00.0,38.1,30.3,12.2,0001.6,0015.89,0006.73,0005.73
2021-09-16 17:34:00,,0822.9,5.00,0.00,28.9,26.1,00.0,38.1,30.4,11.8,0001.6,0015.25,0006.76,0005.76
2021-09-16 17:35:00,,0822.9,5.00,0.00,28.9,26.5,00.0,38.0,30.6,12.1,0001.7,0014.32,0006.75,0005.79
2021-09-16 17:36:00,,0822.8,4.99,0.00,28.9,27.0,00.0,38.0,30.7,12.4,0002.1,0013.34,0006.71,0005.80
2021-09-16 17:37:00,,0822.8,5.02,0.00,29.0,27.4,00.0,38.0,30.8,12.6,0002.2,0013.94,0006.70,0005.82
2021-09-16 17:38:00,,0822.8,4.99,0.00,29.0,27.7,00.0,38.0,30.9,12.8,0002.0,0014.08,0006.66,0005.82
2021-09-16 17:39:00,,0822.8,5.01,0.00,29.1,28.0,00.0,38.0,31.0,12.5,0001.5,0013.97,0006.59,0005.82
2021-09-16 17:40:00,,0822.8,5.00,0.00,29.2,28.1,00.0,38.1,31.0,12.2,0001.0,0013.01,0006.54,0005.83
2021-09-16 17:41:00,,0822.8,5.01,0.00,29.1,26.9,00.0,38.1,30.8,12.1,0001.3,0013.27,0006.57,0005.87
2021-09-16 17:42:00,,0822.8,5.01,0.00,29.0,25.8,00.0,38.1,30.4,12.1,0001.2,0013.49,0006.59,0005.92
2021-09-16 17:43:00,,0822.7,5.00,0.00,28.9,26.1,00.0,38.1,30.4,12.3,0000.7,0013.86,0006.57,0005.94
2021-09-16 17:44:00,,0822.7,4.99,0.00,28.9,26.5,00.0,38.0,30.6,12.7,0000.8,0013.86,0006.57,0005.96
2021-09-16 17:45:00,,0822.7,5.00,0.00,28.9,27.0,00.0,38.0,30.7,12.2,0001.1,0014.23,0006.57,0005.96
2021-09-16 17:46:00,,0822.7,5.00,0.00,29.0,27.4,00.0,38.0,30.8,12.1,0001.3,0014.76,0006.61,0005.98
2021-09-16 17:47:00,,0822.7,5.00,0.00,29.0,27.7,00.0,38.0,30.9,11.9,0001.0,0015.34,0006.66,0006.00
2021-09-16 17:48:00,,0822.6,5.00,0.00,29.1,28.0,00.0,38.0,31.0,11.9,0001.2,0014.46,0006.65,0006.02
2021-09-16 17:49:00,,0822.6,5.00,0.00,29.2,28.1,00.0,38.1,31.0,12.0,0001.5,0014.23,0006.68,0006.05
2021-09-16 17:50:00,,0822.6,5.00,0.00,29.1,27.0,00.0,38.1,30.8,12.2,0001.8,0014.16,0006.73,0006.06
2021-09-16 17:51:00,,0822.7,5.01,0.00,29.0,25.8,00.0,38.0,30.4,12.2,0002.4,0014.31,0006.80,0006.08
2021-09-16 17:52:00,,0822.6,4.99,0.00,29.0,26.1,00.0,38.0,30.5,12.5,0002.0,0014.84,0006.80,0006.09
2021-09-16 17:53:00,,0822.6,5.00,0.00,28.9,26.5,00.0,38.0,30.6,12.9,0001.9,0015.33,0006.80,0006.07
2021-09-16 17:54:00,,0822.6,5.00,0.00,28.9,26.9,00.0,38.0,30.7,12.8,0002.7,0014.82,0006.83,0006.08
2021-09-16 17:55:00,,0822.6,4.99,0.00,29.0,27.3,00.0,38.0,30.8,12.2,0002.7,0015.15,0006.85,0006.09
2021-09-16 17:56:00,,0822.5,5.01,0.00,29.0,27.7,00.0,38.0,30.9,12.3,0002.5,0014.86,0006.89,0006.11
2021-09-16 17:57:00,,0822.6,5.01,0.00,29.1,28.0,00.0,38.0,31.0,12.2,0002.3,0014.52,0006.93,0006.14
2021-09-16 17:58:00,,0822.6,5.00,0.00,29.2,27.8,00.0,38.0,31.0,12.6,0002.4,0014.60,0006.99,0006.17
2021-09-16 17:59:00,,0822.6,5.00,0.00,29.1,26.2,00.0,38.0,30.5,12.6,0002.1,0014.93,0007.07,0006.21
